Date String (YYYY-MM-DD hh:mm:ss) UTC,Instrument flags,absolute air pressure of the measurement (hPa),sample flow rate (lpm),inlet stack bypass flow (lpm),air temperature of the measurement (°C),ambient temperature measured by the external sensor (°C),aerosol sample conditioner tube jacket temperature (°C),OPC LED temperature (°C),internal box temperature (°C),relative humidity of the measurement (%),span deviation,mass concentration of particles derived from Lorenz-Mie calculation of OPC scattering (μg/m³),mass concentration of particles derived from Lorenz-Mie calculation of OPC scattering (μg/m³),mass concentration of particles derived from Lorenz-Mie calculation of OPC scattering (μg/m³)
DateTimeUTC,F1_M11,P_M11,Q1_M11,Q2_M11,T1_M11,T2_M11,T3_M11,T4_M11,T5_M11,U1_M11,ZSPAN_M11,X0_M11,X2_M11,X1_M11
2024-06-16 09:00:00,SystemResetWarning,0824.1,5.00,000.00,031.0,030.3,000.0,039.3,032.7,016.9,0003.0,0014.10,0008.16,0007.45
2024-06-16 09:01:00,SystemResetWarning,0824.1,5.00,000.00,031.0,030.3,000.0,039.3,032.7,016.8,0002.5,0014.44,0008.11,0007.31
2024-06-16 09:02:00,SystemResetWarning,0824.2,5.00,000.00,031.0,030.4,000.0,039.3,032.7,016.6,0002.6,0014.72,0008.04,0007.16
2024-06-16 09:03:00,SystemResetWarning,0824.2,5.01,000.00,031.0,030.4,000.0,039.3,032.7,016.5,0002.6,0015.54,0007.91,0007.00
2024-06-16 09:04:00,SystemResetWarning,0824.1,4.99,000.00,031.1,030.4,000.0,039.3,032.7,016.4,0002.5,0015.32,0007.80,0006.84
2024-06-16 09:05:00,SystemResetWarning,0824.0,5.00,000.00,031.1,030.4,000.0,039.3,032.7,016.4,0003.1,0014.64,0007.70,0006.70
2024-06-16 09:06:00,SystemResetWarning,0824.0,4.99,000.00,031.1,030.4,000.0,039.4,032.8,016.5,0003.5,0015.19,0007.60,0006.56
2024-06-16 09:07:00,SystemResetWarning,0824.0,5.00,000.00,031.1,030.4,000.0,039.4,032.8,016.6,0003.5,0016.07,0007.56,0006.44
2024-06-16 09:08:00,SystemResetWarning,0824.0,5.00,000.00,031.1,030.5,000.0,039.4,032.8,016.6,0003.4,0016.61,0007.54,0006.40
2024-06-16 09:09:00,SystemResetWarning,0824.1,5.01,000.00,031.1,030.5,000.0,039.4,032.8,016.7,0003.3,0016.30,0007.56,0006.38
2024-06-16 09:10:00,SystemResetWarning,0824.1,5.00,000.00,031.1,030.5,000.0,039.4,032.8,016.7,0003.2,0016.72,0007.54,0006.35
2024-06-16 09:11:00,SystemResetWarning,0824.1,5.00,000.00,031.2,030.5,000.0,039.4,032.8,016.8,0002.9,0018.00,0007.62,0006.33
2024-06-16 09:12:00,SystemResetWarning,0824.2,5.00,000.00,031.2,030.5,000.0,039.5,032.8,016.8,0003.1,0017.97,0007.59,0006.31
2024-06-16 09:13:00,SystemResetWarning,0824.2,5.00,000.00,031.2,030.5,000.0,039.5,032.9,016.7,0002.7,0018.14,0007.56,0006.29
2024-06-16 09:14:00,SystemResetWarning,0824.1,4.99,000.00,031.2,030.3,000.0,039.5,032.7,016.7,0002.2,0017.93,0007.60,0006.29
2024-06-16 09:15:00,SystemResetWarning,0824.0,4.98,000.00,030.9,027.7,000.0,039.5,031.5,016.9,0001.8,0017.69,0007.58,0006.28
2024-06-16 09:16:00,SystemResetWarning,0824.0,5.03,000.00,030.4,026.5,000.0,039.5,030.9,017.3,0001.1,0017.68,0007.53,0006.27
2024-06-16 09:17:00,SystemResetWarning,0824.0,4.99,000.00,030.2,026.8,000.0,039.3,030.9,017.6,0001.2,0016.99,0007.55,0006.25
2024-06-16 09:18:00,SystemResetWarning,0824.0,5.00,000.00,030.1,027.2,000.0,039.2,031.1,017.9,0001.5,0016.98,0007.52,0006.23
2024-06-16 09:19:00,SystemResetWarning,0824.0,5.01,000.00,030.1,027.7,000.0,039.1,031.3,018.1,0001.7,0017.41,0007.56,0006.22
2024-06-16 09:20:00,SystemResetWarning,0824.0,4.99,000.00,030.1,028.0,000.0,039.0,031.5,018.3,0001.7,0017.55,0007.50,0006.18
2024-06-16 09:21:00,SystemResetWarning,0823.9,4.99,000.00,030.1,028.4,000.0,038.9,031.6,018.4,0001.2,0017.78,0007.49,0006.15
2024-06-16 09:22:00,SystemResetWarning,0824.0,5.00,000.00,030.1,028.6,000.0,038.9,031.7,018.6,0001.1,0016.98,0007.36,0006.10
2024-06-16 09:23:00,SystemResetWarning,0824.0,5.01,000.00,030.1,028.9,000.0,038.8,031.8,018.6,0001.0,0016.88,0007.31,0006.06
2024-06-16 09:24:00,SystemResetWarning,0824.0,5.01,000.00,030.2,029.0,000.0,038.8,031.8,018.8,0001.6,0017.53,0007.24,0006.00
2024-06-16 09:25:00,SystemResetWarning,0824.0,5.00,000.00,030.2,029.2,000.0,038.8,031.9,018.8,0001.9,0017.19,0007.14,0005.91
2024-06-16 09:26:00,SystemResetWarning,0824.1,5.00,000.00,030.2,029.3,000.0,038.8,031.9,018.8,0000.3,0018.08,0007.07,0005.84
2024-06-16 09:27:00,SystemResetWarning,0824.2,4.99,000.00,030.3,029.4,000.0,038.8,032.0,018.7,0000.0,0018.70,0006.98,0005.76
2024-06-16 09:28:00,SystemResetWarning,0824.2,4.99,000.00,030.3,029.5,000.0,038.8,032.0,018.7,0001.7,0019.38,0006.89,0005.68
2024-06-16 09:29:00,SystemResetWarning,0824.1,5.00,000.00,030.3,029.6,000.0,038.8,032.1,018.7,0002.4,0019.06,0006.82,0005.60
2024-06-16 09:30:00,SystemResetWarning,0824.2,5.01,000.00,030.4,029.7,000.0,038.8,032.1,018.6,0000.3,0018.50,0006.75,0005.52
2024-06-16 09:31:00,SystemResetWarning,0824.2,5.01,000.00,030.4,029.7,000.0,038.8,032.1,018.6,0002.7,0018.59,0006.75,0005.46
2024-06-16 09:32:00,SystemResetWarning,0824.1,5.00,000.00,030.4,029.8,000.0,038.8,032.2,018.4,0004.4,0019.38,0006.71,0005.43
2024-06-16 09:33:00,SystemResetWarning,0824.0,5.00,000.00,030.5,029.8,000.0,038.8,032.2,018.3,0004.4,0019.29,0006.71,0005.42
2024-06-16 09:34:00,SystemResetWarning,0824.0,5.00,000.00,030.5,029.9,000.0,038.8,032.2,018.3,0004.1,0018.91,0006.65,0005.40
2024-06-16 09:35:00,SystemResetWarning,0824.0,5.00,000.00,030.5,029.9,000.0,038.8,032.3,018.3,0003.6,0019.50,0006.68,0005.42
2024-06-16 09:36:00,SystemResetWarning,0824.0,5.01,000.00,030.6,030.0,000.0,038.9,032.3,018.2,0003.8,0019.48,0006.75,0005.46
2024-06-16 09:37:00,SystemResetWarning,0824.0,4.99,000.00,030.6,030.0,000.0,038.9,032.4,018.1,0003.8,0019.82,0006.81,0005.48
2024-06-16 09:38:00,SystemResetWarning,0824.0,5.00,000.00,030.6,030.0,000.0,038.9,032.4,018.0,0003.4,0020.06,0006.89,0005.50
2024-06-16 09:39:00,SystemResetWarning,0824.0,5.02,000.00,030.7,030.1,000.0,038.9,032.4,018.0,0003.1,0021.00,0007.00,0005.54
2024-06-16 09:40:00,SystemResetWarning,0824.0,5.01,000.00,030.7,030.1,000.0,038.9,032.4,017.6,0001.0,0021.30,0007.00,0005.56
2024-06-16 09:41:00,SystemResetWarning,0824.0,5.00,000.00,030.7,030.1,000.0,039.0,032.5,017.4,0000.0,0020.78,0007.03,0005.62
2024-06-16 09:42:00,SystemResetWarning,0824.0,4.99,000.00,030.7,030.1,000.0,039.0,032.5,017.4,0000.0,0020.25,0007.06,0005.69
2024-06-16 09:43:00,SystemResetWarning,0824.0,5.00,000.00,030.8,030.1,000.0,039.0,032.5,017.6,0000.0,0019.01,0007.07,0005.74
2024-06-16 09:44:00,SystemResetWarning,0823.9,5.00,000.00,030.8,030.2,000.0,039.0,032.5,017.6,0000.0,0018.72,0007.09,0005.78
2024-06-16 09:45:00,SystemResetWarning,0824.0,5.00,000.00,030.8,030.2,000.0,039.0,032.5,017.6,0000.0,0018.77,0007.19,0005.81
2024-06-16 09:46:00,SystemResetWarning,0824.0,5.01,000.00,030.8,030.2,000.0,039.1,032.5,017.5,0000.0,0017.78,0007.18,0005.82
2024-06-16 09:47:00,SystemResetWarning,0823.9,4.99,000.00,030.8,030.2,000.0,039.1,032.5,017.5,0000.0,0018.13,0007.17,0005.84
2024-06-16 09:48:00,SystemResetWarning,0824.0,4.99,000.00,030.9,030.2,000.0,039.1,032.6,017.2,0000.0,0017.68,0007.19,0005.87
2024-06-16 09:49:00,SystemResetWarning,0824.0,5.01,000.00,030.9,030.2,000.0,039.1,032.6,016.8,0000.0,0017.50,0007.23,0005.92
2024-06-16 09:50:00,SystemResetWarning,0824.0,5.01,000.00,030.9,030.3,000.0,039.1,032.6,016.2,0000.9,0016.52,0007.27,0006.00
2024-06-16 09:51:00,SystemResetWarning,0824.0,4.99,000.00,030.9,030.3,000.0,039.2,032.6,016.1,0004.5,0016.19,0007.42,0006.13
2024-06-16 09:52:00,SystemResetWarning,0824.0,4.99,000.00,030.9,030.3,000.0,039.2,032.7,016.3,0004.2,0016.89,0007.49,0006.22
2024-06-16 09:53:00,SystemResetWarning,0824.0,5.00,000.00,030.9,030.3,000.0,039.2,032.7,016.0,0004.0,0017.32,0007.52,0006.29
2024-06-16 09:54:00,SystemResetWarning,0824.0,5.00,000.00,031.0,030.3,000.0,039.2,032.7,016.0,0003.9,0017.37,0007.59,0006.39
2024-06-16 09:55:00,SystemResetWarning,0824.0,5.01,000.00,031.0,030.3,000.0,039.2,032.7,016.0,0004.1,0017.47,0007.65,0006.47
2024-06-16 09:56:00,SystemResetWarning,0824.0,5.01,000.00,031.0,030.3,000.0,039.2,032.7,015.9,0003.7,0017.56,0007.78,0006.62
2024-06-16 09:57:00,SystemResetWarning,0824.0,4.99,000.00,031.0,030.3,000.0,039.2,032.7,015.8,0002.7,0017.81,0007.92,0006.76
2024-06-16 09:58:00,SystemResetWarning,0824.0,4.99,000.00,031.0,030.3,000.0,039.3,032.7,015.7,0002.5,0017.44,0008.02,0006.90
2024-06-16 09:59:00,SystemResetWarning,0824.0,5.00,000.00,031.0,030.4,000.0,039.3,032.7,015.7,0002.4,0016.81,0008.08,0007.03
